Theta_e
292 294 294 293 293 293 292 293 289 293 293 299 302 304 306 309 310 310 310 311 311 312 315 317 321 323 322 322 324 324 323 323 327 334 339 337 333 336 335 334 332 331 329 329
289 292 292 290 292 292 292 293 292 293 293 301 305 305 305 305 308 309 310 310 311 312 312 315 317 319 318 319 320 322 322 320 323 324 331 327 329 330 333 332 332 331 329 328
285 291 290 286 290 292 293 295 294 291 296 302 301 302 304 305 307 309 310 311 313 312 313 316 316 319 317 317 321 320 319 319 320 321 322 325 324 326 326 329 331 329 328 328
286 289 279 290 296 296 294 296 297 297 298 299 300 304 305 307 307 307 307 310 311 311 315 316 316 316 317 317 317 317 317 317 317 318 319 320 321 322 324 327 327 326 326 326
284 284 289 291 294 293 291 290 298 296 298 298 300 301 302 305 307 308 307 309 311 312 313 314 314 316 315 315 315 315 314 315 316 317 317 318 318 320 323 323 323 323 324 325
288 281 279 290 296 298 298 287 297 297 296 296 298 293 297 305 307 307 310 309 308 310 312 311 313 315 314 312 312 312 313 314 315 316 317 316 317 318 320 322 322 322 321 323
287 285 288 296 296 298 285 289 299 299 299 298 296 298 303 305 305 308 308 309 310 311 310 311 313 314 312 312 311 312 313 313 313 314 314 315 314 317 317 318 318 319 320 321
287 284 280 297 296 289 295 300 300 299 301 300 301 301 302 303 304 304 306 306 307 306 308 312 311 310 309 308 312 311 310 310 310 310 310 309 310 310 312 313 314 315 314 317
289 288 298 300 299 301 301 297 298 299 300 300 300 300 302 302 302 304 303 305 305 305 305 307 309 308 305 307 308 307 307 307 308 308 308 309 307 306 306 308 309 310 312 313
291 294 296 298 300 300 300 299 300 301 300 300 298 299 300 301 302 302 302 302 303 303 302 303 304 305 304 304 305 304 303 303 304 303 302 303 304 305 304 304 304 306 308 309
292 295 296 297 299 300 300 301 300 300 299 297 298 298 298 298 299 300 300 301 301 300 300 300 301 300 301 301 301 299 299 299 299 298 298 299 300 302 302 303 303 303 305 306
289 296 295 296 299 300 299 299 300 298 297 298 298 296 296 296 297 297 297 298 298 298 297 295 296 297 298 299 299 297 296 296 296 296 296 297 296 297 297 296 297 295 294 298
296 299 299 300 301 302 299 300 300 299 298 295 295 295 294 294 295 295 294 295 293 293 294 294 295 295 296 297 297 296 295 295 295 295 295 295 295 295 294 297 295 295 294 294
301 300 297 299 298 302 302 301 301 300 298 297 295 295 294 292 292 291 290 291 292 292 293 293 293 294 296 297 297 296 296 295 296 296 296 295 295 295 295 295 295 297 296 294
301 302 301 302 301 299 300 301 298 296 296 296 295 293 291 288 287 288 290 290 291 292 293 294 293 293 295 296 295 295 295 295 296 296 297 297 297 296 297 296 297 297 299 298
300 301 299 297 296 297 297 297 296 295 295 293 292 290 289 288 287 289 291 292 291 290 291 292 292 294 295 294 293 293 293 293 293 294 295 295 297 297 297 297 297 298 299 300
298 295 295 295 295 295 295 297 297 294 292 292 288 289 290 290 290 290 290 291 291 291 292 292 291 292 292 292 291 291 292 293 291 293 294 294 295 297 299 298 298 299 300 301
299 298 298 297 296 296 296 296 296 295 291 289 290 291 289 288 287 287 288 290 290 290 291 291 290 290 290 291 292 292 293 294 295 296 296 296 296 297 298 301 300 300 301 303
299 298 298 298 298 298 297 295 295 295 293 292 291 289 289 288 288 288 289 288 288 287 288 289 289 289 290 291 291 292 292 293 295 296 298 297 298 299 300 300 301 303 304 304
298 299 299 298 300 299 297 297 297 295 294 293 291 289 288 287 287 288 288 287 288 287 288 287 288 289 289 290 290 292 294 295 297 300 300 301 302 302 303 299 304 305 306 303
298 298 298 298 298 299 300 299 297 295 296 294 291 287 286 287 289 288 287 285 288 289 287 289 288 288 287 289 291 295 298 305 306 305 305 304 305 307 308 309 305 303 304 304
299 298 299 299 298 298 300 300 299 298 296 294 292 288 288 287 288 288 290 288 288 287 288 288 288 286 287 288 293 293 295 299 304 305 307 306 305 304 304 304 303 303 304 306
300 300 300 299 298 300 301 300 301 300 298 296 289 288 288 287 287 286 286 290 290 288 290 288 286 285 286 290 290 291 292 293 295 302 303 304 305 304 304 304 305 304 304 303
301 301 300 301 300 299 299 300 300 302 301 300 295 289 289 288 290 293 293 291 289 289 290 288 286 285 286 288 288 288 289 290 291 295 299 296 303 303 303 303 302 302 302 300
301 302 301 301 299 298 301 302 300 301 301 302 301 299 298 297 293 293 294 293 290 290 291 289 287 286 287 287 287 287 287 288 289 292 294 298 300 300 300 299 299 301 301 301
301 300 301 303 302 300 299 300 300 299 300 300 301 301 299 299 297 296 295 292 292 290 290 290 289 288 287 286 286 286 287 287 289 290 291 294 296 297 296 296 297 298 299 300
301 297 301 301 302 302 301 299 298 298 298 299 298 301 300 298 297 295 292 294 292 291 290 290 290 288 287 286 286 286 286 287 287 288 290 291 292 294 294 294 295 295 295 297
Wind_Speed
20 22 21 24 27 24 25 25 22 25 23 24 22 22 20 13 5 10 18 17 19 20 20 11 3 4 4 3 3 6 8 10 10 5 5 6 6 6 8 9 9 9 8 8
24 21 23 28 24 24 26 26 27 26 27 17 25 26 22 19 11 13 10 14 12 10 20 12 9 5 7 7 8 6 5 8 9 9 5 5 7 7 7 7 8 9 9 10
22 19 21 22 19 22 23 19 18 12 15 18 19 23 22 20 13 5 13 16 9 5 11 13 4 3 4 4 5 6 7 8 10 9 9 7 5 5 8 8 9 10 11 12
15 15 20 15 18 13 11 15 20 14 15 12 10 14 17 15 13 13 15 7 5 1 7 5 6 8 8 8 8 8 10 10 11 12 12 11 11 11 10 9 11 12 14 15
4 9 18 26 8 6 8 21 9 9 14 18 19 15 4 4 10 6 8 14 9 6 8 9 8 7 8 9 11 11 12 13 13 14 13 12 13 13 11 12 13 13 14 15
7 6 7 13 2 3 14 17 3 12 14 10 9 13 10 9 7 11 7 8 6 14 12 12 10 10 9 10 12 14 13 13 13 13 12 12 12 12 11 11 12 11 15 15
11 13 11 6 5 10 11 9 12 16 19 13 13 11 11 11 13 12 14 13 12 12 11 12 10 9 11 11 12 12 13 13 13 12 12 11 13 12 11 12 11 12 14 14
10 13 10 4 7 7 12 17 21 17 20 18 19 19 17 15 13 13 18 17 17 15 14 11 10 10 11 12 10 11 13 14 15 14 12 12 14 13 14 13 14 15 15 13
8 7 13 9 14 11 9 7 13 16 18 21 20 20 20 15 15 15 15 14 16 14 14 13 12 10 12 13 13 13 13 14 15 15 13 13 14 15 14 14 13 14 12 13
17 15 18 16 14 15 15 15 16 14 16 17 16 20 21 18 16 14 12 12 13 13 14 15 12 14 14 12 13 15 17 17 14 15 16 15 13 13 13 13 14 13 13 12
17 16 16 13 19 15 18 20 15 13 12 14 17 19 17 17 19 17 17 15 15 15 15 16 14 16 17 17 15 15 16 15 15 13 15 14 14 12 13 14 14 13 12 12
9 18 15 18 20 20 20 19 15 11 13 14 15 18 20 18 16 16 16 16 15 16 17 18 18 17 16 16 15 15 14 13 13 12 11 11 12 13 19 22 25 21 15 13
11 15 15 18 18 20 16 15 16 11 11 13 13 13 16 17 15 19 19 18 17 17 17 17 17 17 16 15 15 16 16 15 12 14 12 12 11 12 13 13 19 21 22 25
15 15 18 16 17 18 15 11 11 9 10 9 11 15 15 14 15 15 16 16 16 17 17 16 17 18 16 14 15 16 16 22 13 12 12 12 12 12 11 12 12 11 17 22
18 16 12 16 16 14 13 10 11 11 13 13 10 12 12 14 15 16 16 16 16 16 17 15 16 18 15 15 15 16 13 12 11 11 11 13 12 12 11 12 12 11 10 10
15 17 15 17 18 17 17 15 11 13 13 7 12 13 13 13 14 15 15 15 14 14 16 16 17 15 14 14 15 13 14 21 19 12 11 11 11 11 11 12 11 11 10 11
14 15 15 15 14 13 13 13 12 8 7 10 11 13 14 14 14 14 14 14 14 15 15 14 16 15 16 15 15 12 11 12 14 11 12 11 11 12 10 11 11 11 12 12
13 12 11 12 12 11 12 13 11 10 7 9 11 12 13 13 14 15 15 15 15 14 12 13 15 16 17 16 14 11 10 11 11 11 10 11 11 10 11 11 12 12 12 10
13 14 13 13 11 10 11 10 7 6 7 9 11 13 13 12 13 14 14 14 13 15 15 17 22 21 15 16 16 10 11 12 12 11 10 10 10 10 10 11 11 11 11 8
13 12 12 13 11 9 10 8 7 4 5 8 11 12 14 14 14 14 14 13 11 11 17 18 18 15 16 17 18 10 10 12 12 10 9 9 9 10 10 12 11 11 8 7
12 11 12 13 13 13 9 10 9 7 8 8 10 12 13 13 14 14 13 11 17 16 18 18 14 12 12 15 12 10 10 7 7 9 8 8 8 9 8 6 3 3 3 4
11 11 12 13 12 12 10 8 8 5 8 9 10 10 13 14 15 14 12 12 12 19 12 11 12 18 15 17 11 12 12 11 8 7 5 3 3 2 2 2 2 3 3 4
9 10 11 12 12 9 11 12 11 9 10 8 7 9 12 9 8 11 13 17 13 17 11 13 20 22 20 13 13 13 13 13 12 9 7 6 5 4 3 2 3 3 3 3
10 9 11 10 11 11 11 11 12 10 10 9 6 4 6 9 11 10 11 15 20 18 13 15 18 21 19 12 12 12 12 13 12 11 10 8 7 6 5 5 5 5 5 5
9 7 9 10 10 9 10 9 10 11 9 9 9 9 13 11 10 11 12 13 19 17 15 19 22 21 13 13 13 12 11 12 11 10 10 10 9 9 8 8 8 6 5 5
6 6 6 8 8 8 9 10 7 8 8 7 7 7 8 9 12 12 12 16 15 18 15 14 15 15 14 14 14 15 13 13 12 11 12 12 11 9 9 9 8 7 6 6
5 8 7 7 7 8 7 9 10 9 10 9 9 8 9 9 10 13 14 14 14 14 14 14 15 17 15 15 14 15 13 12 15 13 12 12 11 10 10 10 10 10 11 11
Wind_Direction
274 283 283 287 287 293 287 287 284 290 280 279 284 284 282 276 263 300 306 309 327 337 312 297 318 355 12 326 36 38 15 357 338 321 190 184 186 195 199 208 220 227 235 234
281 289 283 279 284 288 282 280 277 276 274 318 336 333 297 281 256 221 254 281 283 314 311 11 30 47 47 21 355 350 355 330 322 325 294 219 206 204 225 218 225 231 239 245
278 284 288 281 285 283 290 305 343 335 338 342 354 342 337 326 347 265 237 264 233 269 275 298 28 20 34 17 327 323 322 307 298 299 290 290 273 251 234 223 233 236 240 241
270 285 275 274 272 344 340 305 333 330 333 318 327 328 353 11 17 10 8 336 144 142 261 276 316 336 348 325 302 292 280 278 277 279 279 279 275 265 256 246 237 236 238 239
258 261 280 291 342 1 352 307 329 340 340 335 322 303 238 32 331 8 340 320 320 330 300 307 303 322 322 308 305 291 280 275 273 271 265 266 267 261 254 245 242 242 242 241
277 270 279 300 152 299 312 285 45 323 307 295 299 304 320 327 340 308 257 223 267 302 296 283 293 290 265 265 270 276 283 284 283 284 284 275 269 267 268 268 261 252 247 242
267 284 289 22 350 326 276 321 326 321 318 312 316 319 321 337 312 318 309 307 298 288 281 281 281 283 277 270 269 278 281 285 286 292 295 297 302 294 284 279 275 282 265 247
304 298 284 170 321 302 332 333 330 321 309 335 323 312 306 303 306 332 323 320 320 318 315 319 332 333 315 301 308 306 299 294 290 287 286 289 288 285 287 282 283 263 257 264
245 280 278 1 323 353 329 302 302 317 313 310 310 304 307 320 320 319 310 300 305 304 302 304 307 311 298 293 294 291 283 283 284 274 269 267 266 267 271 266 268 260 265 253
306 305 319 336 325 333 332 327 327 313 313 314 310 310 304 310 310 308 302 300 294 297 306 306 310 304 292 301 296 286 278 272 271 268 267 264 261 258 255 253 252 258 254 253
300 296 332 317 317 331 325 317 317 324 328 327 323 317 317 311 308 309 309 315 315 307 300 295 300 296 291 286 281 277 272 266 262 259 258 257 254 255 254 251 248 248 252 254
300 314 303 307 314 311 310 303 296 284 316 327 326 320 318 310 307 304 301 302 300 296 297 291 282 278 275 270 267 268 267 262 256 256 255 254 255 258 247 248 255 260 255 247
306 311 303 292 300 298 291 300 306 309 315 326 330 323 319 311 306 306 299 295 289 282 279 278 277 275 272 270 266 261 257 257 255 251 250 249 248 250 259 251 240 240 245 249
311 308 298 307 304 304 294 289 297 303 311 323 326 320 305 296 295 291 288 285 282 281 279 278 277 273 273 271 266 262 258 256 255 253 248 244 242 244 246 250 252 249 237 234
322 314 294 281 288 338 348 339 346 338 329 324 327 312 307 300 293 290 289 287 285 284 284 287 287 284 284 279 274 270 266 260 256 254 250 244 239 239 238 240 244 249 252 244
308 306 331 350 346 351 348 342 329 320 338 340 318 313 305 296 290 289 292 295 300 296 295 292 287 290 295 291 281 274 267 259 252 254 255 250 245 234 234 236 236 239 240 241
325 336 353 346 345 344 340 348 357 23 349 333 319 309 307 307 305 304 305 305 298 296 297 298 296 295 290 282 274 266 263 259 246 245 243 239 237 242 231 228 232 235 237 234
358 349 358 346 336 349 346 356 1 3 343 316 311 320 322 319 311 309 309 310 309 304 310 306 304 300 294 288 280 272 266 262 254 245 235 231 230 230 231 234 227 232 241 239
1 8 354 346 3 23 9 4 340 353 327 328 333 326 319 313 313 312 314 315 317 323 324 321 310 307 301 296 293 278 263 256 251 245 239 229 223 228 228 230 237 238 240 230
14 8 3 353 41 53 23 14 9 359 339 342 339 335 331 329 325 325 326 327 331 319 319 315 314 319 317 310 304 287 263 251 246 239 225 222 219 225 225 227 230 234 230 197
17 6 5 11 21 30 48 33 22 8 3 1 345 337 330 327 334 335 335 337 338 331 324 323 332 330 323 322 317 324 315 305 230 223 214 205 216 225 236 215 169 148 171 186
17 12 7 17 31 26 30 37 37 40 23 358 341 338 343 346 341 340 346 343 332 336 333 344 341 338 335 336 349 350 352 354 17 18 34 44 65 57 76 100 140 153 173 186
14 21 6 26 27 26 36 31 28 48 42 355 328 342 349 335 335 343 343 346 349 344 353 356 348 351 351 360 359 359 357 6 9 7 23 28 39 44 54 65 93 100 94 98
358 33 14 29 23 25 28 45 28 27 41 33 36 347 346 351 351 355 349 347 353 355 1 0 358 358 3 3 3 2 5 12 7 3 8 23 31 35 34 41 56 57 76 80
2 18 41 18 35 17 19 27 54 10 30 50 52 29 19 14 9 350 357 358 360 1 4 5 6 6 8 6 7 8 7 11 6 4 18 24 33 36 36 39 39 41 55 65
21 13 31 42 33 33 26 12 36 43 360 41 41 57 27 23 13 8 5 5 7 3 5 5 10 9 12 11 10 9 10 12 11 13 22 26 31 38 43 45 43 46 52 67
115 31 28 28 33 29 38 49 18 39 28 12 34 43 48 32 29 16 10 9 9 10 9 9 11 13 11 13 13 14 14 14 18 19 23 25 27 33 39 42 44 49 49 47